CZ-6A DEB, 60890

Orbit data source: Space-Track

CZ-6A DEB, 60890 is space debris in LEO originally from a launch on Tue, 06 Aug 2024 UTC launched from the Taiyaun Space Center, China (TSC). Debris objects in space refer to the collection of defunct objects orbiting the Earth. Examples of debris include non-operational satellites, rocket bodies, and fragments generated from explosions, collisions, or faulty payload assembly.

Loading next visibility...
Identifier
60890, 2024-140KV
Orbit
LEO
Country
Flag of CNCN / PRC
Related business
Manufacturer
SAST
Mission
Spacecraft
Bus & Motor
Unknown
Mass
Unknown
Launch date (UTC)
2024-08-06 (2 years ago)
Launch vehicle
Unknown
Launch site
Taiyaun Space Center, China (TSC)
Object type
Payload
Rocket body
Debris
Shape & HBR
Unknown shape, 0.2 m
Radar Cross Section
Medium (>0.1 m² and <1 m²)

Expand to show TLE details & history
Last TLE update: 13 hours ago

TLE from 13 hours ago
0 CZ-6A DEB
1 60890U 24140KV  26171.28622757  .00010173  00000-0  15322-2 0  9997
2 60890  89.0025 269.0608 0078549 218.8785 140.6770 14.72236603 97951
Epoch: 2026-06-20T06:52Z
TLE epoch observation values (Epoch: 2026-06-20T06:52:10.062Z)
Latitude
0.00003°
Longitude
-102.48416°
Altitude
699.977 km
Speed
7.483 km/s
True Right ascension
17h 56m 14s
True Declination
0° 00' 00"
Sunlit
Object was in full shadow at epoch
Visualization orbit readout
Latitude
Unknown
Longitude
Unknown
Altitude
Unknown
Speed
Unknown
Apparent Right ascension
Unknown
Apparent Declination
Unknown
Sunlit
N/A
Visualization observer readout
Local Sidereal Time
07:15:00
Azimuth
Unknown
Elevation
Unknown
Doppler factor
Unknown
Orbital elements
Apogee altitude
706.025 km
Perigee altitude
595.602 km
Semi-major axis
7,028.95 km
Eccentricity
0.00785
Inclination
89.0025°
RAAN
269.0608°
Arg. of periapsis
218.8785°
True anomaly
141.24308°
Mean anomaly
140.677°
Eccentric anomaly
140.96047°
Mean motion
3.68305 °/min
Orbital period
97.75 mins
BSTAR
0.0015322
Loading maneuver chart data...
Computing Atmospheric mass density...
Loading historical data...
Loading historical data...
Loading historical data...
Loading historical data...
Loading historical data...
Loading historical data...
Loading historical data...

Documentation

Showing up to 5 results
|